Orbital Elements at Epoch 2459000.5 (2020-May-31.0) TDB
Reference: JPL 18 (heliocentric ecliptic J2000)
Element | Value | Uncertainty (1-sigma) | Units |
e | .3118187178367886 | 5.1325e-08 | |
a | 2.383563119694003 | 6.8075e-09 | au |
q | 1.640323523827963 | 1.2378e-07 | au |
i | 2.308769925864619 | 5.6261e-06 | deg |
node | 72.29150991922018 | 9.9971e-05 | deg |
peri | 303.1527554786383 | 0.00010034 | deg |
M | 263.5111289641327 | 6.6261e-06 | deg |
tp | 2459360.757587746067 (2021-May-26.25758775) | 2.5302e-05 | TDB |
period | 1344.121142638037 3.68 | 5.7582e-06 1.577e-08 | d yr |
n | .267833001490808 | 1.1474e-09 | deg/d |
Q | 3.126802715560043 | 8.9301e-09 | au |
|
| | Orbit Determination Parameters
Additional Information
|